Location: Arborea
(39.7744°N, 8.5819°E)
Time: 03:39:57
(UTC+00:00)

USA 229 - Pass Details

Date: 02 June 2022
Orbit: 938 x 1274 km, 63.4° (Epoch: 24 May)

Event Time Altitude Azimuth Distance (km) Brightness Sun altitude
Rises 22:46:34 0° 324° (NW) 4,011 7.7 -27.3°
Reaches altitude 10° 22:49:12 10° 322° (NW) 3,092 6.9 -27.4°
Maximum altitude 22:56:40 72° 240° (WSW) 1,285 3.9 -27.6°
Enters shadow 22:58:06 59° 184° (S) 1,404 3.9 -27.7°
